Voltar ao catálogo

FENGYUN 1C DEB

AtivoLEO
NORAD 30622·DEBRIS·🇨🇳 China

Lançado May 10, 1999 de Taiyuan Satellite Launch Center

Loading…

Próximas Passagens (próximas 24 horas)

TLE

AtualizadoSource: Space-Track

Época: Sep 14, 2026, 04:42 UTC

1 30622U 99025AND 26257.19593700  .00004068  00000-0  14136-2 0  9999
2 30622 100.9927 347.3914 0066076 345.8529  44.4275 14.35047331727446

Acompanhe FENGYUN 1C DEB em tempo real com AllMySat

Download on the App Store